KZR217 UACC-UNNT

Flight info

Callsign KZR217
Flight time N/A
Altitude 34000
Route K0839F340 OLGAS1A OLGAS M75 POBUR/K0837F350 M75 DAKIN/K0832F370 B944 GOLIM GOLIM1K
Aircraft A21N/M-SDE2E3FGHIRWXY/LB1

Departure

Time 2026-04-29 14:06
Airport Nursultan Nazarbayev International Airport (UACC)

Arrival

Time N/A
Airport Novosibirsk Tolmachevo Airport (UNNT)
Time Latitude Longitude Altitude Speed Heading
2026-04-29 13:53 51.02734 71.46394 1167 ft 0 kts 314°
2026-04-29 13:56 51.02733 71.46395 1168 ft 1 kts 315°
2026-04-29 13:56 51.02723 71.46412 1168 ft 2 kts 314°
2026-04-29 13:56 51.02713 71.46429 1168 ft 2 kts 314°
2026-04-29 13:57 51.02702 71.46446 1168 ft 2 kts 314°
2026-04-29 13:57 51.02691 71.46462 1168 ft 2 kts 314°
2026-04-29 13:57 51.02681 71.46479 1168 ft 2 kts 314°
2026-04-29 13:57 51.02674 71.46489 1168 ft 0 kts 327°
2026-04-29 13:58 51.02669 71.46513 1168 ft 0 kts 314°
2026-04-29 13:58 51.02672 71.46518 1168 ft 0 kts 215°
2026-04-29 14:00 51.02672 71.46517 1168 ft 0 kts 215°
2026-04-29 14:00 51.02639 71.46470 1168 ft 9 kts 223°
2026-04-29 14:00 51.02581 71.46384 1167 ft 12 kts 223°
2026-04-29 14:00 51.02579 71.46256 1165 ft 13 kts 264°
2026-04-29 14:01 51.02524 71.46147 1165 ft 11 kts 228°
2026-04-29 14:01 51.02455 71.46098 1165 ft 12 kts 157°
2026-04-29 14:01 51.02387 71.46188 1165 ft 13 kts 136°
2026-04-29 14:01 51.02302 71.46221 1165 ft 14 kts 210°
2026-04-29 14:02 51.02227 71.46114 1165 ft 15 kts 224°
2026-04-29 14:02 51.02150 71.45992 1165 ft 16 kts 224°
2026-04-29 14:02 51.02068 71.45865 1165 ft 16 kts 222°
2026-04-29 14:02 51.01982 71.45733 1165 ft 17 kts 224°
2026-04-29 14:03 51.01899 71.45602 1167 ft 16 kts 224°
2026-04-29 14:03 51.01809 71.45463 1165 ft 18 kts 224°
2026-04-29 14:03 51.01717 71.45319 1165 ft 19 kts 224°
2026-04-29 14:03 51.01620 71.45167 1165 ft 19 kts 224°
2026-04-29 14:04 51.01520 71.45010 1162 ft 21 kts 224°
2026-04-29 14:04 51.01414 71.44846 1162 ft 21 kts 223°
2026-04-29 14:04 51.01313 71.44704 1162 ft 17 kts 203°
2026-04-29 14:04 51.01215 71.44771 1164 ft 16 kts 133°
2026-04-29 14:05 51.01169 71.44916 1165 ft 14 kts 67°
2026-04-29 14:05 51.01202 71.44977 1165 ft 0 kts 45°
2026-04-29 14:05 51.01334 71.45187 1165 ft 63 kts 43°
2026-04-29 14:06 51.01818 71.45935 1167 ft 127 kts 44°
2026-04-29 14:06 51.02551 71.47085 1269 ft 163 kts 44°
2026-04-29 14:06 51.03390 71.48389 1697 ft 172 kts 44°
2026-04-29 14:06 51.04244 71.49694 2266 ft 176 kts 44°
2026-04-29 14:07 51.05106 71.51013 2970 ft 169 kts 45°
2026-04-29 14:07 51.05962 71.52336 3335 ft 179 kts 45°
2026-04-29 14:07 51.06379 71.52988 3465 ft 186 kts 46°
2026-04-29 14:07 51.07342 71.54492 3747 ft 200 kts 46°
2026-04-29 14:08 51.08469 71.55905 4024 ft 217 kts 29°
2026-04-29 14:08 51.09930 71.56732 4298 ft 234 kts 16°
2026-04-29 14:08 51.11599 71.57396 4546 ft 256 kts 14°
2026-04-29 14:08 51.13353 71.58055 5046 ft 266 kts 14°
2026-04-29 14:09 51.15155 71.58742 5709 ft 270 kts 14°
2026-04-29 14:09 51.16979 71.59452 6368 ft 274 kts 14°
2026-04-29 14:09 51.18839 71.60188 7035 ft 278 kts 14°
2026-04-29 14:09 51.20737 71.60880 7629 ft 286 kts 11°
2026-04-29 14:10 51.22730 71.61340 8147 ft 296 kts
2026-04-29 14:10 51.24794 71.61681 8829 ft 300 kts
2026-04-29 14:10 51.26881 71.62003 9523 ft 303 kts
2026-04-29 14:10 51.28970 71.62324 10172 ft 306 kts
2026-04-29 14:11 51.31126 71.62658 10644 ft 317 kts
2026-04-29 14:11 51.33387 71.63012 10938 ft 333 kts
2026-04-29 14:11 51.35731 71.63382 11217 ft 349 kts
2026-04-29 14:11 51.38230 71.63779 11493 ft 364 kts
2026-04-29 14:12 51.40781 71.64186 11854 ft 375 kts
2026-04-29 14:12 51.43375 71.64603 12429 ft 379 kts
2026-04-29 14:12 51.45979 71.65022 13031 ft 381 kts
2026-04-29 14:12 51.48629 71.65458 13609 ft 384 kts
2026-04-29 14:13 51.51288 71.65900 14181 ft 387 kts
2026-04-29 14:13 51.53979 71.66344 14739 ft 390 kts
2026-04-29 14:13 51.56681 71.66785 15286 ft 393 kts
2026-04-29 14:13 51.59378 71.67223 15813 ft 395 kts
2026-04-29 14:14 51.62098 71.67664 16322 ft 398 kts
2026-04-29 14:14 51.64863 71.68111 16833 ft 401 kts
2026-04-29 14:14 51.67645 71.68561 17332 ft 404 kts
2026-04-29 14:14 51.70437 71.69012 17818 ft 406 kts
2026-04-29 14:15 51.73253 71.69468 18289 ft 409 kts
2026-04-29 14:15 51.76080 71.69926 18746 ft 411 kts
2026-04-29 14:15 51.78937 71.70390 19203 ft 413 kts
2026-04-29 14:15 51.81762 71.70847 19644 ft 416 kts
2026-04-29 14:16 51.84638 71.71313 20096 ft 417 kts
2026-04-29 14:16 51.87532 71.71785 20527 ft 419 kts
2026-04-29 14:16 51.90441 71.72259 20934 ft 422 kts
2026-04-29 14:16 51.93350 71.72732 21331 ft 424 kts
2026-04-29 14:17 51.96284 71.73209 21712 ft 427 kts
2026-04-29 14:17 51.99233 71.73689 22086 ft 429 kts
2026-04-29 14:17 52.02220 71.74178 22466 ft 431 kts
2026-04-29 14:17 52.05195 71.74667 22839 ft 433 kts
2026-04-29 14:18 52.08166 71.75218 23205 ft 435 kts
2026-04-29 14:18 52.11160 71.76033 23557 ft 437 kts
2026-04-29 14:18 52.14122 71.76966 23903 ft 439 kts
2026-04-29 14:18 52.17109 71.77937 24230 ft 441 kts
2026-04-29 14:19 52.20118 71.78918 24532 ft 444 kts
2026-04-29 14:19 52.23143 71.79903 24837 ft 446 kts
2026-04-29 14:19 52.26214 71.80903 25136 ft 448 kts
2026-04-29 14:19 52.29239 71.81883 25405 ft 451 kts
2026-04-29 14:20 52.32313 71.82879 25678 ft 453 kts
2026-04-29 14:20 52.35396 71.83877 25949 ft 455 kts
2026-04-29 14:20 52.38538 71.84896 26207 ft 457 kts
2026-04-29 14:20 52.41645 71.85908 26468 ft 459 kts
2026-04-29 14:21 52.44782 71.86932 26737 ft 461 kts
2026-04-29 14:21 52.47917 71.87954 26989 ft 463 kts
2026-04-29 14:21 52.51059 71.88976 27231 ft 464 kts
2026-04-29 14:21 52.54205 71.90002 27480 ft 466 kts
2026-04-29 14:22 52.57399 71.91046 27728 ft 467 kts
2026-04-29 14:22 52.60601 71.92095 27978 ft 469 kts
2026-04-29 14:22 52.63755 71.93130 28308 ft 468 kts
2026-04-29 14:22 52.66925 71.94142 28664 ft 466 kts
2026-04-29 14:23 52.70129 71.95101 29023 ft 465 kts
2026-04-29 14:23 52.73286 71.96030 29348 ft 465 kts
2026-04-29 14:23 52.76447 71.96957 29689 ft 464 kts
2026-04-29 14:23 52.79634 71.97898 30015 ft 464 kts
2026-04-29 14:24 52.82784 71.98831 30329 ft 464 kts
2026-04-29 14:24 52.85971 71.99779 30659 ft 463 kts
2026-04-29 14:24 52.89108 72.00714 30965 ft 463 kts
2026-04-29 14:24 52.92138 72.01617 31265 ft 463 kts
2026-04-29 14:25 52.95298 72.02563 31584 ft 462 kts
2026-04-29 14:25 52.98463 72.03512 31899 ft 462 kts
2026-04-29 14:25 53.01571 72.04446 32212 ft 461 kts
2026-04-29 14:25 53.04756 72.05414 32531 ft 460 kts
2026-04-29 14:26 53.07882 72.06368 32784 ft 461 kts
2026-04-29 14:26 53.11034 72.07327 33000 ft 462 kts
2026-04-29 14:26 53.14196 72.08284 33212 ft 463 kts
2026-04-29 14:26 53.17350 72.09239 33452 ft 464 kts
2026-04-29 14:27 53.20515 72.10200 33665 ft 465 kts
2026-04-29 14:27 53.23700 72.11168 33869 ft 466 kts
2026-04-29 14:27 53.26874 72.12135 34086 ft 466 kts
2026-04-29 14:28 53.33250 72.14085 34198 ft 468 kts
2026-04-29 14:28 53.39593 72.16032 34205 ft 468 kts
2026-04-29 14:29 53.45999 72.18002 34206 ft 468 kts
2026-04-29 14:29 53.52388 72.19970 34204 ft 468 kts
2026-04-29 14:30 53.58763 72.21938 34204 ft 468 kts
2026-04-29 14:30 53.65130 72.23924 34205 ft 468 kts
2026-04-29 14:31 53.71491 72.25991 34206 ft 467 kts
2026-04-29 14:31 53.77875 72.28072 34203 ft 467 kts
2026-04-29 14:32 53.84192 72.30132 34208 ft 467 kts
2026-04-29 14:32 53.90561 72.32208 34204 ft 467 kts
2026-04-29 14:33 53.96936 72.34293 34207 ft 468 kts
2026-04-29 14:33 54.03307 72.36384 34214 ft 468 kts
2026-04-29 14:34 54.09456 72.39908 34210 ft 473 kts 26°
2026-04-29 14:34 54.14664 72.46635 34208 ft 477 kts 45°
2026-04-29 14:34 54.16751 72.51075 34211 ft 477 kts 56°
2026-04-29 14:35 54.18346 72.55926 34213 ft 477 kts 65°
2026-04-29 14:35 54.20421 72.66709 34210 ft 477 kts 76°
2026-04-29 14:36 54.22165 72.77565 34207 ft 477 kts 76°
2026-04-29 14:36 54.23941 72.88428 34211 ft 478 kts 75°
2026-04-29 14:37 54.25745 72.99329 34215 ft 478 kts 75°
2026-04-29 14:37 54.27537 73.10152 34225 ft 477 kts 75°
2026-04-29 14:38 54.29342 73.21108 34230 ft 478 kts 75°
2026-04-29 14:38 54.31125 73.31998 34232 ft 478 kts 75°
2026-04-29 14:39 54.32897 73.42902 34238 ft 478 kts 75°
2026-04-29 14:39 54.34666 73.53857 34236 ft 478 kts 76°
2026-04-29 14:40 54.36431 73.64854 34241 ft 479 kts 76°
2026-04-29 14:40 54.38182 73.75856 34240 ft 479 kts 77°
2026-04-29 14:41 54.39914 73.86827 34242 ft 479 kts 77°
2026-04-29 14:41 54.41634 73.97789 34242 ft 479 kts 77°
2026-04-29 14:42 54.43352 74.08814 34238 ft 480 kts 77°
2026-04-29 14:42 54.45061 74.19833 34238 ft 480 kts 77°
2026-04-29 14:43 54.46758 74.30843 34240 ft 480 kts 77°
2026-04-29 14:43 54.48449 74.41889 34237 ft 480 kts 77°
2026-04-29 14:44 54.50140 74.53000 34243 ft 480 kts 77°
2026-04-29 14:44 54.51814 74.64085 34250 ft 481 kts 77°
2026-04-29 14:45 54.53472 74.75159 34245 ft 480 kts 78°
2026-04-29 14:45 54.55130 74.86304 34248 ft 481 kts 78°
2026-04-29 14:46 54.56773 74.97411 34242 ft 482 kts 78°
2026-04-29 14:46 54.58412 75.08574 34243 ft 483 kts 78°
2026-04-29 14:47 54.60042 75.19755 34242 ft 483 kts 78°
2026-04-29 14:47 54.61658 75.30901 34242 ft 482 kts 78°
2026-04-29 14:48 54.63271 75.42104 34244 ft 483 kts 78°
2026-04-29 14:48 54.64873 75.53294 34252 ft 483 kts 78°
2026-04-29 14:49 54.66471 75.64570 34247 ft 484 kts 78°
2026-04-29 14:49 54.68041 75.75796 34255 ft 482 kts 79°
2026-04-29 14:50 54.69593 75.86954 34256 ft 482 kts 79°
2026-04-29 14:50 54.71149 75.98177 34257 ft 483 kts 79°
2026-04-29 14:51 54.72702 76.09455 34261 ft 483 kts 79°
2026-04-29 14:51 54.74249 76.20775 34266 ft 484 kts 79°
2026-04-29 14:52 54.75776 76.32018 34268 ft 484 kts 79°
2026-04-29 14:52 54.77294 76.43288 34270 ft 482 kts 78°
2026-04-29 14:53 54.78802 76.54568 34274 ft 482 kts 78°
2026-04-29 14:53 54.80297 76.65839 34276 ft 482 kts 79°
2026-04-29 14:54 54.81779 76.77120 34279 ft 481 kts 79°
2026-04-29 14:54 54.83247 76.88357 34282 ft 480 kts 79°
2026-04-29 14:55 54.84698 76.99567 34283 ft 481 kts 79°
2026-04-29 14:55 54.86154 77.10874 34288 ft 481 kts 79°
2026-04-29 14:56 54.87599 77.22184 34293 ft 481 kts 79°
2026-04-29 14:56 54.89024 77.33410 34300 ft 481 kts 79°
2026-04-29 14:57 54.90452 77.44748 34308 ft 480 kts 79°
2026-04-29 14:57 54.91853 77.55978 34302 ft 479 kts 79°
2026-04-29 14:58 54.93015 77.67318 34302 ft 477 kts 84°
2026-04-29 14:58 54.93808 77.78759 34304 ft 477 kts 85°
2026-04-29 14:59 54.94575 77.90176 34299 ft 476 kts 85°
2026-04-29 14:59 54.95341 78.01545 34299 ft 476 kts 84°
2026-04-29 15:00 54.96103 78.12932 34302 ft 477 kts 84°
2026-04-29 15:00 54.96857 78.24350 34301 ft 477 kts 84°
2026-04-29 15:01 54.97601 78.35762 34303 ft 477 kts 84°
2026-04-29 15:01 54.98333 78.47176 34308 ft 477 kts 84°
2026-04-29 15:02 54.99056 78.58612 34313 ft 477 kts 84°
2026-04-29 15:02 54.99768 78.70064 34312 ft 477 kts 85°
2026-04-29 15:03 55.00469 78.81499 34320 ft 476 kts 85°
2026-04-29 15:03 55.00812 78.87163 34202 ft 472 kts 85°
2026-04-29 15:03 55.01151 78.92797 33709 ft 469 kts 85°
2026-04-29 15:03 55.01488 78.98474 33029 ft 468 kts 85°
2026-04-29 15:04 55.01815 79.04011 32419 ft 466 kts 85°
2026-04-29 15:04 55.02145 79.09640 31744 ft 465 kts 84°
2026-04-29 15:04 55.02465 79.15151 31004 ft 465 kts 84°
2026-04-29 15:04 55.02789 79.20766 30246 ft 465 kts 84°
2026-04-29 15:05 55.03109 79.26311 29495 ft 465 kts 84°
2026-04-29 15:05 55.03429 79.31902 28671 ft 467 kts 84°
2026-04-29 15:05 55.03749 79.37524 27808 ft 469 kts 84°
2026-04-29 15:05 55.04066 79.43153 27091 ft 467 kts 84°
2026-04-29 15:06 55.04378 79.48759 26557 ft 461 kts 84°
2026-04-29 15:06 55.04680 79.54209 25997 ft 457 kts 84°
2026-04-29 15:06 55.04982 79.59695 25391 ft 453 kts 84°
2026-04-29 15:06 55.05278 79.65098 24807 ft 450 kts 85°
2026-04-29 15:07 55.05573 79.70531 24219 ft 446 kts 85°
2026-04-29 15:07 55.05856 79.75850 23658 ft 442 kts 86°